Flag for U.S.A. Weather past 2 weeks in Hialeah, Florida, U.S.A.

Now
75 °F

Passing clouds.


Feels Like: 75 °F
Forecast: 73 / 83 °F
Wind: 6 mph from Southeast

Location: Opa Locka Airport

Current Time: Mar 4, 2015 at 10:05:51 PM

Latest Report: Mar 4, 2015 at 8:53 PM


Visibility: 10 mi

Pressure: 30.14 "Hg

Humidity: 82%

Dew point: 69 °F

Location of HialeahLocation

Historic Weather in Hialeah — Graph

°F

Hialeah temperature yesterday

Maximum temperature yesterday: 81 °F (at 2:53 PM)
Minimum temperature yesterday: 71 °F (at 1:53 AM)
Average temperature yesterday: 75 °F

Past Weeks' High & Low Weather Summary

 TemperatureHumidityPressure
High87 °F (Feb 26, 1:53 PM)100% (Feb 22, 11:53 PM)30.36 "Hg (Feb 22, 11:53 PM)
Low41 °F (Feb 20, 4:53 AM)23% (Feb 19, 3:53 PM)29.82 "Hg (Feb 26, 2:53 AM)
Average71 °F70%30.14 "Hg
* Reported Feb 17 8:53 PM — Mar 4 8:53 PM, Hialeah, Weather by CustomWeather, © 2015

Note: Actual official high and low records may vary slightly from our data, if they occured in-between our weather recording intervals... More about our weather records

Advertising

Hialeah weather history for previous 24 hours

 ConditionsComfort  
Time TempWeatherWind HumidityBarometerVisibility
8:53 PM
Wed, Mar 4
75 °FPassing clouds.6 mph82%30.14 "Hg10 mi
7:53 PM74 °FClear.6 mph82%30.12 "Hg10 mi
6:53 PM75 °FPassing clouds.7 mph79%30.11 "Hg10 mi
5:53 PM77 °FScattered clouds.9 mph71%30.11 "Hg10 mi
4:53 PM78 °FPassing clouds.14 mph66%30.10 "Hg10 mi
3:53 PM81 °FScattered clouds.15 mph60%30.10 "Hg10 mi
2:53 PM81 °FScattered clouds.14 mph60%30.11 "Hg10 mi
1:53 PM82 °FScattered clouds.13 mph60%30.12 "Hg10 mi
12:53 PM81 °FPartly sunny.15 mph60%30.15 "Hg10 mi
11:53 AM81 °FPartly sunny.15 mph60%30.17 "Hg10 mi
10:53 AM80 °FBroken clouds.12 mph62%30.19 "Hg10 mi
9:53 AM80 °FScattered clouds.13 mph64%30.19 "Hg10 mi
8:53 AM77 °FBroken clouds.13 mph71%30.18 "Hg10 mi
7:53 AM76 °FPassing clouds.12 mph74%30.16 "Hg10 mi
6:53 AM73 °FPassing clouds.8 mph79%30.14 "Hg10 mi
5:53 AM73 °FPassing clouds.8 mph81%30.12 "Hg10 mi
4:53 AM73 °FPassing clouds.7 mph81%30.10 "Hg10 mi
3:53 AM73 °FClear.8 mph79%30.10 "Hg10 mi
2:53 AM74 °FPartly cloudy.8 mph79%30.11 "Hg10 mi
1:53 AM74 °FClear.10 mph79%30.11 "Hg10 mi
12:53 AM74 °FClear.10 mph76%30.14 "Hg10 mi
11:53 PM
Tue, Mar 3
74 °FPassing clouds.12 mph79%30.15 "Hg10 mi
10:53 PM75 °FPassing clouds.13 mph76%30.16 "Hg10 mi
Weather by CustomWeather, © 2015

See weather overviewHow to use our weather pages